Weather in Banda Neira

Indonesia     4°32′56″S   129°54′41″E
temp.,
°C
wind,
m/s
gust,
m/s
humid.,
%
clouds,
%
prec.,
mm/h
press.,
hPa
HPBL,
m
28 february, sun
sun2800:00+29wnw237396 0.1 1008588
03:00+29nne227298 0.1 1007519
06:00+29ne5676100 1.1 1007511
09:00+28nne6780100 1.1 1009577
12:00+29ene227376 2.4 1008200
15:00+30w676788 2.4 1007936
18:00+29wsw7974100 0.0 1006861
21:00+29w8975100 1.9 1009726
1 march, mon
mon100:00+29w7876100 0.9 1009800
03:00+29wnw5575100 4.0 1007509
06:00+29w4474100 0.1 1008605
09:00+29wnw447695 0.1 1010640
12:00+29nnw337394 0.0 1009760
15:00+29w457084 0.0 10071031
18:00+29w787554 0.8 1007844
21:00+29w787765 1.3 1010922
2 march, tue
tue200:00+29wsw6778100 0.3 1010887
03:00+29w7877100 0.4 1008959
06:00+28wnw7876100 2.5 1009685
09:00+29nnw5573100 3.8 1011894
12:00+28nne4373100 0.0 1010543
15:00+28nw117083 0.5 1007365
18:00+28nw126854 0.1 1008761
21:00+29wnw467174 0.2 10101065
3 march, wed
wed300:00+29w6775100 0.3 1010895
03:00+29nw4572100 1.2 10091034
06:00+29wnw4471100 0.0 1010806
09:00+29wnw5673100 0.0 1011878
12:00+29nw557297 0.0 1010822
15:00+29wnw446898 0.0 1007732
18:00+29wnw3464100 0.0 1008710
21:00+29nw3366100 0.0 1010858
4 march, thu
thu400:00+29wnw2366100 0.1 1010778
03:00+28w2268100 0.1 1008534
06:00+29w3470100 0.0 1009873
09:00+29nw4570100 2.1 1011507
12:00+29nw5669100 0.9 1010834
15:00+29wnw6771100 1.8 1007892
18:00+29w787177 0.0 1008886
21:00+29w687343 0.6 1009783